Terug naar catalogus

STARLINK-3792

ActiefCommunicatieVLEO
NORAD 52339·PAYLOAD·🇺🇸 United States

Gelanceerd Apr 29, 2022 vanaf Cape Canaveral Space Force Station

Loading…

Volgende Passages (komende 24 uur)

TLE

VersSource: CelesTrak SupGP

Epoch: Sep 15, 2026, 01:40 UTC

1 52339C 22045J   26258.06993056  .00699250  00000+0  23741-1 0  2582
2 52339  53.1591  76.8385 0001213  84.8528 310.2436 15.29605479    15

Volg STARLINK-3792 in realtime met AllMySat

Download on the App Store